Temperature
21 18 17 18 19 19 21 21 20 21 23 24 23 23 25 26 25 24 25 25 25 25 25 25 24 24 23 23 22 22 21 20 20 19 19 18 18 18 17 17 17 16 16 16
19 18 19 20 21 21 21 20 20 21 23 24 23 23 23 24 25 26 25 26 25 25 24 24 23 23 23 22 22 21 21 20 20 19 19 18 18 17 17 16 16 16 16 16
18 19 21 21 21 21 21 20 20 21 22 23 24 22 22 23 26 27 27 27 26 25 24 24 23 23 22 21 21 20 20 19 19 19 18 17 17 17 16 16 15 15 15 15
19 20 22 21 21 21 20 22 22 22 21 20 23 20 21 22 23 24 25 26 25 25 24 23 22 21 21 21 20 19 19 19 18 18 18 17 17 16 16 15 15 14 14 14
19 21 21 21 22 22 21 23 22 23 22 20 20 20 19 20 23 23 23 26 25 24 23 22 21 20 19 19 19 19 19 18 18 17 17 17 16 16 15 15 14 14 13 13
20 22 22 22 23 23 23 23 22 19 18 19 20 20 19 20 22 23 23 24 25 23 21 19 19 18 18 18 18 18 18 17 17 16 16 16 16 15 15 14 13 13 12 12
20 21 22 23 22 23 22 19 18 19 17 18 19 20 19 21 22 22 22 22 22 21 19 18 17 17 17 17 17 17 17 16 16 15 15 15 14 14 14 13 12 12 11 11
18 19 21 23 22 21 21 19 18 18 18 18 20 20 20 21 22 22 21 20 19 18 17 17 17 17 16 17 16 16 16 15 15 14 14 13 13 13 12 12 11 11 10 9
18 19 22 23 24 22 21 19 19 18 18 18 18 20 21 20 19 19 18 17 16 16 16 16 16 16 16 15 15 15 15 14 14 13 13 12 12 11 11 10 10 10 9 8
19 20 22 24 24 23 22 20 16 17 17 17 19 20 19 19 18 17 16 15 15 14 14 15 15 15 15 14 14 14 14 13 13 12 12 11 10 10 10 9 9 8 8 7
19 19 20 22 22 22 22 21 18 16 16 17 18 17 19 17 17 16 15 14 14 14 14 14 14 14 14 14 13 13 13 12 11 11 11 10 9 9 9 8 8 7 7 7
17 16 18 20 22 22 21 20 18 18 17 16 16 16 17 16 16 15 14 14 13 13 13 13 13 13 13 12 12 12 11 11 10 10 9 9 8 8 7 7 7 6 6 6
17 16 17 18 18 20 20 20 20 17 16 16 16 15 16 15 15 14 14 13 12 12 12 12 12 11 11 11 11 10 10 9 9 9 8 8 7 7 6 6 6 6 5 5
17 15 16 17 17 19 19 20 20 18 16 16 16 15 14 13 13 13 12 12 11 11 11 10 10 10 10 10 9 9 8 8 8 7 7 7 6 6 6 5 5 5 5 5
15 15 16 17 18 19 19 19 19 19 18 16 15 14 13 13 13 12 12 11 11 10 10 10 10 9 9 9 8 8 7 7 7 6 6 6 5 5 5 5 4 4 4 4
13 14 15 15 17 18 18 18 18 18 17 16 14 13 12 11 11 11 11 11 10 9 9 9 9 9 8 8 7 7 6 6 6 6 5 5 5 4 4 4 4 4 4 4
13 13 13 14 16 17 15 15 16 15 15 15 13 12 11 10 10 9 10 10 9 9 8 8 8 8 7 7 6 6 6 5 5 5 4 4 4 4 4 4 3 3 3 3
13 13 11 13 15 14 14 15 14 13 12 12 12 11 10 9 8 8 8 8 8 8 7 7 7 6 6 6 5 5 5 4 4 4 4 4 3 3 3 3 3 2 2 2
12 12 12 12 13 14 14 14 14 12 11 11 11 10 8 8 8 7 7 7 7 7 7 7 6 6 5 5 4 4 4 4 4 3 3 3 3 3 3 2 2 2 1 1
11 11 11 11 13 13 12 13 13 12 10 10 10 9 9 9 8 6 6 6 6 6 6 5 5 5 4 4 4 4 4 3 3 3 3 3 3 2 2 2 1 1 1 0
10 10 11 11 11 11 10 12 13 12 10 9 9 9 9 8 7 6 5 5 5 5 5 4 4 4 4 4 4 3 3 3 3 3 3 2 2 2 2 1 1 1 0 0
10 10 10 10 10 10 9 10 9 8 8 8 8 8 7 6 5 5 5 5 4 4 4 4 4 4 4 4 4 3 3 3 3 3 2 2 2 2 1 1 1 0 0 -0
10 9 9 9 8 8 8 8 8 8 8 8 7 7 7 5 5 4 4 4 4 4 4 4 4 3 3 3 3 3 3 3 3 3 2 2 2 2 1 1 1 0 -0 -0
10 10 8 8 7 7 7 7 7 7 7 7 7 7 6 5 4 4 4 4 4 4 4 4 4 4 3 3 3 3 3 3 3 3 2 2 2 1 1 1 0 -0 -0 -1
10 9 8 7 7 7 6 6 6 6 6 7 7 6 6 5 4 4 4 4 4 4 4 4 4 4 3 3 3 3 3 3 3 3 2 2 2 1 1 1 0 -0 -1 -1
8 8 8 7 7 6 6 6 6 5 5 6 5 5 5 5 4 4 4 4 4 4 4 4 4 4 3 3 3 3 3 3 3 3 2 2 2 1 1 1 -0 -1 -1 -1
Wind_Speed
6 5 8 10 9 9 6 7 10 13 12 8 12 15 17 13 11 14 15 16 17 18 17 15 16 16 16 16 16 16 16 14 12 10 8 8 6 6 6 6 10 12 13 13
3 8 12 9 7 7 9 11 13 14 13 7 9 12 13 13 12 15 17 17 16 13 11 13 14 16 17 16 14 13 14 12 10 7 5 5 6 6 6 6 9 12 13 12
13 9 9 9 9 10 11 12 15 14 15 8 5 9 9 8 5 8 12 14 15 17 18 17 17 16 15 14 13 12 11 10 9 10 9 8 7 6 4 6 6 7 13 13
10 12 9 10 13 12 13 14 15 15 11 8 1 5 10 8 7 6 7 8 12 13 15 17 17 15 14 11 10 11 11 10 10 10 11 11 7 6 5 5 6 7 11 12
9 9 13 14 17 15 14 15 11 9 6 4 5 1 9 8 8 11 10 8 9 12 16 18 16 14 13 12 12 11 11 9 9 9 11 11 9 8 7 7 9 8 6 9
11 8 10 14 17 14 14 8 2 4 5 2 6 2 8 7 9 10 8 5 6 11 14 14 14 15 14 13 12 11 12 9 9 10 10 11 13 12 11 9 8 6 5 5
10 12 9 8 9 10 6 5 3 4 4 6 6 3 8 11 9 7 5 0 5 12 16 17 16 15 14 13 12 12 13 11 9 10 9 10 11 11 11 9 8 7 5 4
9 11 9 8 11 10 7 11 9 7 6 6 5 5 6 8 5 4 7 10 14 15 16 16 15 14 13 12 11 11 12 10 10 10 9 9 9 8 7 7 7 7 6 5
10 10 9 10 10 11 8 7 11 9 5 2 6 5 5 9 12 13 15 16 17 16 16 16 14 13 12 12 10 10 11 11 11 11 11 10 9 9 9 8 7 7 6 5
9 7 6 5 3 4 11 10 7 7 7 5 5 3 3 5 7 12 14 16 16 16 16 15 13 12 11 11 11 11 11 11 11 10 10 10 9 9 9 9 9 8 6 5
3 6 5 3 2 3 1 4 6 7 7 8 3 2 3 0 6 12 13 14 15 15 14 13 12 11 11 11 11 11 11 10 10 10 10 10 9 9 9 8 8 7 6 5
4 4 3 4 3 2 2 2 6 6 5 7 6 1 6 4 8 13 14 15 14 14 13 12 11 10 10 10 10 10 10 10 9 10 10 10 9 9 9 8 7 6 6 5
4 5 3 6 7 8 6 6 3 4 4 4 5 3 6 8 11 11 13 14 13 13 12 11 10 9 9 9 9 10 9 9 9 10 10 10 9 8 8 7 7 6 6 5
4 5 4 3 1 4 6 6 5 5 4 3 5 6 5 7 9 10 11 12 12 12 11 11 10 9 9 9 9 9 9 9 9 10 10 9 8 8 7 6 6 6 6 6
5 4 3 1 3 5 5 7 5 3 4 7 9 8 5 5 8 9 11 12 13 12 11 10 10 9 9 9 9 10 10 9 9 10 10 8 7 7 6 6 6 5 5 5
6 4 5 7 8 7 9 10 6 5 5 13 15 9 6 8 10 10 9 10 11 11 11 10 10 10 9 10 10 10 9 9 9 9 8 6 6 6 6 5 4 5 6 6
3 4 4 4 7 6 8 10 9 9 8 5 6 8 10 11 11 8 7 9 10 10 10 9 9 9 9 8 9 9 8 8 9 8 6 5 5 5 5 6 7 6 6 5
2 3 3 2 5 2 2 7 14 16 15 13 14 12 11 12 10 10 8 8 9 10 10 10 9 10 9 8 8 8 8 8 7 6 4 4 6 7 7 7 6 5 4 4
4 5 3 3 1 2 2 5 3 5 8 8 9 11 12 12 10 8 8 8 9 9 10 9 9 9 8 8 7 8 7 6 5 5 5 5 7 7 6 6 5 3 3 3
5 5 5 4 3 3 1 8 4 9 4 4 4 6 8 7 3 4 5 8 9 10 9 9 8 8 8 6 6 7 5 6 6 6 6 6 6 6 5 4 3 2 3 3
5 5 3 3 2 1 4 10 5 4 3 2 2 2 3 2 5 10 10 9 9 10 9 8 8 7 6 5 6 6 6 6 5 6 6 6 5 5 4 3 3 3 4 5
1 2 1 2 2 3 6 5 4 2 0 1 3 5 9 11 13 12 11 10 10 9 8 8 7 6 4 4 5 6 5 4 5 6 6 5 4 3 4 4 4 4 5 5
1 3 2 2 2 2 4 4 3 2 1 1 3 7 12 13 13 12 10 10 9 8 7 5 5 4 3 3 5 5 3 4 5 4 4 3 3 3 4 4 4 4 4 4
3 2 4 4 4 3 5 5 5 4 2 1 6 9 12 14 14 13 11 9 7 6 5 4 5 5 3 3 4 4 3 3 4 3 3 2 2 2 3 3 3 3 2 3
2 2 4 4 4 4 3 4 4 5 5 7 8 10 12 15 14 12 10 8 6 5 4 4 4 5 4 4 3 3 3 3 3 2 2 2 3 3 3 2 2 3 2 2
2 2 4 5 6 5 3 3 4 5 6 9 13 12 11 12 12 10 8 6 5 5 4 5 5 5 5 5 4 3 4 4 4 3 2 2 3 2 2 2 1 1 2 3
Wind_Direction
198 156 211 222 206 197 222 262 274 276 284 289 269 265 269 253 215 205 206 205 203 206 205 194 188 181 176 174 174 175 172 170 159 153 149 140 130 116 101 93 97 100 101 100
223 227 220 216 227 232 243 260 272 283 281 264 267 270 268 258 224 204 201 204 202 199 191 187 183 177 176 172 169 168 167 162 155 147 132 123 116 101 90 87 80 85 91 93
206 230 217 216 234 238 245 237 249 258 281 303 295 308 307 296 251 211 200 198 193 189 186 181 175 173 167 165 162 159 150 140 130 126 117 111 98 89 82 81 79 76 87 88
223 234 232 223 233 228 248 239 237 247 258 275 286 284 295 301 313 279 244 216 202 192 181 174 168 162 155 145 135 129 124 122 124 132 138 138 136 129 122 117 104 87 88 93
228 216 216 231 237 229 235 246 238 239 231 280 327 274 283 309 299 285 275 247 212 187 173 167 158 145 129 123 120 117 111 113 122 130 135 129 124 121 125 118 110 103 99 104
233 238 211 222 238 233 231 234 318 51 73 322 272 252 286 273 256 270 279 272 207 171 153 137 124 120 115 111 109 109 107 104 108 112 119 128 133 136 135 129 124 115 105 96
264 267 254 238 257 265 200 138 40 337 353 259 269 255 261 269 268 253 262 194 126 136 133 129 125 119 115 110 107 107 106 103 105 109 114 124 131 135 137 136 133 128 116 107
225 263 250 229 219 227 209 154 164 195 222 269 309 232 268 300 334 51 80 90 97 105 113 114 109 106 104 100 97 100 101 98 96 100 101 106 110 113 117 121 126 129 126 122
199 239 254 243 225 187 180 182 177 158 184 231 281 278 323 21 48 62 76 86 93 98 102 100 97 95 95 94 93 99 102 98 94 95 96 95 99 103 106 108 111 117 120 123
185 235 277 283 293 246 184 166 114 137 173 227 270 298 311 1 64 80 88 96 100 99 98 95 94 94 95 98 98 95 95 99 98 98 100 101 97 101 103 103 103 104 103 102
168 199 289 5 59 325 310 150 139 146 162 169 201 297 337 115 120 110 107 110 113 110 108 106 103 101 100 99 99 98 96 94 93 93 95 97 96 98 97 97 99 100 98 96
18 134 237 264 283 294 128 166 149 160 206 163 148 188 358 63 92 109 112 114 111 110 110 109 108 106 104 104 103 103 101 98 97 98 94 90 90 91 93 93 91 88 81 69
41 76 50 355 4 10 27 16 45 121 124 135 139 138 22 54 75 91 107 111 111 108 103 98 95 93 93 95 97 98 96 95 95 94 91 86 83 82 81 77 71 67 64 56
77 76 113 139 291 326 335 353 33 80 105 108 121 119 50 62 81 86 91 101 104 101 100 98 94 89 89 89 90 91 88 89 91 88 85 79 75 74 72 68 60 56 58 61
61 69 50 31 354 7 352 348 10 58 145 145 140 122 101 85 94 101 104 108 111 109 107 107 108 104 98 91 86 86 86 83 86 85 80 75 69 62 54 51 54 55 55 62
36 50 35 10 6 19 20 9 29 44 95 127 122 108 100 89 84 88 98 109 113 114 114 114 113 110 105 102 98 91 86 82 82 82 78 68 59 55 55 52 52 54 53 58
11 54 57 352 341 26 22 12 62 63 44 117 128 127 122 94 74 64 72 95 109 114 115 112 110 107 103 98 97 92 87 81 76 74 69 63 62 65 62 68 64 60 59 63
158 97 107 46 36 60 101 63 72 71 52 64 94 108 108 101 84 57 52 80 95 106 107 106 107 104 98 95 91 90 86 81 78 72 65 71 80 83 77 72 63 56 54 55
162 144 119 109 130 235 76 11 16 96 60 51 97 117 127 126 100 60 46 69 90 100 104 105 107 106 101 95 92 89 84 82 79 76 77 90 99 97 84 71 58 50 53 38
44 101 119 124 159 217 332 326 343 112 93 18 100 145 168 175 139 128 100 95 97 100 104 105 101 96 93 88 87 88 85 83 86 88 87 97 107 104 95 84 61 39 50 33
14 30 89 133 175 207 319 317 353 130 164 350 84 150 157 139 128 129 122 112 110 107 103 100 97 93 91 90 88 89 90 97 107 101 94 97 111 112 105 76 51 45 46 37
73 41 39 118 182 238 338 18 70 140 140 62 96 112 116 116 117 122 123 120 116 111 105 101 99 96 95 97 100 101 107 121 117 110 104 101 107 108 97 83 58 48 49 39
136 186 167 135 150 86 41 76 66 78 64 24 126 133 132 130 130 128 125 122 118 115 112 106 107 103 95 107 116 116 137 136 125 120 120 114 99 88 96 100 84 57 45 38
342 74 105 97 102 91 64 57 44 45 49 76 137 138 137 132 132 130 129 127 124 123 125 121 113 110 104 105 115 140 150 140 129 135 149 149 126 102 93 100 105 94 62 34
316 56 93 110 140 118 69 56 62 61 66 89 108 123 131 130 131 132 133 135 136 138 133 123 118 116 113 105 100 115 126 119 115 128 150 144 139 138 133 125 146 144 177 179
315 152 163 188 185 157 152 119 98 95 96 109 114 113 118 126 130 133 136 140 141 141 133 124 117 114 109 101 93 84 92 108 112 106 112 133 143 146 150 135 50 250 211 227
Height
1484 1493 1499 1496 1495 1498 1498 1502 1504 1495 1484 1487 1486 1481 1471 1467 1470 1472 1474 1474 1475 1475 1476 1480 1484 1487 1491 1494 1498 1502 1505 1509 1513 1516 1519 1522 1524 1527 1530 1533 1535 1537 1538 1540
1488 1492 1487 1486 1488 1491 1495 1501 1501 1492 1481 1482 1483 1479 1469 1463 1463 1464 1466 1467 1468 1469 1473 1476 1479 1483 1485 1489 1494 1499 1502 1506 1510 1512 1515 1519 1521 1523 1526 1529 1531 1533 1534 1536
1488 1484 1480 1484 1488 1491 1494 1498 1497 1494 1482 1480 1481 1483 1473 1462 1459 1458 1459 1460 1461 1462 1464 1468 1472 1476 1481 1486 1491 1496 1501 1505 1509 1510 1513 1517 1519 1521 1523 1525 1527 1530 1531 1532
1481 1477 1479 1482 1485 1487 1494 1483 1484 1485 1491 1496 1485 1502 1482 1468 1462 1458 1457 1457 1457 1457 1459 1462 1466 1471 1477 1483 1490 1495 1500 1503 1506 1509 1512 1515 1516 1518 1520 1522 1524 1527 1528 1530
1476 1472 1476 1479 1476 1477 1481 1473 1477 1479 1485 1492 1489 1498 1491 1472 1467 1459 1453 1453 1453 1454 1456 1459 1463 1470 1476 1483 1489 1495 1498 1502 1504 1507 1510 1512 1514 1517 1518 1520 1522 1524 1526 1528
1469 1465 1467 1468 1465 1467 1467 1471 1476 1484 1493 1505 1493 1496 1496 1476 1464 1456 1450 1449 1449 1452 1456 1460 1466 1471 1477 1484 1489 1494 1497 1500 1503 1506 1509 1510 1512 1514 1516 1517 1519 1522 1524 1525
1471 1465 1461 1461 1465 1463 1466 1485 1504 1504 1514 1510 1490 1491 1490 1463 1454 1451 1449 1448 1448 1451 1456 1462 1468 1474 1480 1485 1490 1494 1497 1500 1502 1505 1507 1509 1510 1512 1513 1515 1518 1519 1521 1523
1480 1475 1459 1455 1460 1465 1466 1476 1502 1513 1516 1507 1489 1492 1481 1461 1453 1450 1450 1451 1453 1457 1462 1468 1474 1479 1484 1489 1493 1496 1498 1501 1502 1504 1506 1508 1509 1511 1512 1514 1516 1518 1520 1521
1472 1470 1451 1448 1447 1453 1463 1471 1471 1491 1497 1504 1499 1485 1472 1463 1458 1457 1458 1459 1463 1466 1470 1474 1479 1484 1488 1492 1495 1498 1500 1501 1503 1505 1506 1507 1509 1510 1512 1513 1515 1516 1518 1520
1456 1464 1452 1444 1443 1444 1448 1456 1478 1492 1506 1512 1500 1491 1489 1475 1471 1466 1467 1468 1471 1474 1477 1480 1484 1487 1491 1494 1496 1498 1501 1503 1504 1505 1506 1508 1509 1510 1512 1513 1515 1516 1517 1519
1452 1462 1457 1450 1451 1455 1452 1457 1466 1482 1488 1503 1507 1504 1481 1478 1473 1471 1472 1474 1476 1478 1481 1484 1487 1490 1492 1495 1496 1498 1501 1504 1505 1506 1507 1509 1510 1511 1512 1514 1515 1516 1517 1518
1455 1462 1466 1457 1448 1444 1448 1453 1462 1480 1485 1489 1499 1505 1483 1480 1476 1473 1475 1478 1480 1482 1485 1488 1490 1492 1493 1495 1496 1499 1501 1504 1506 1507 1508 1510 1511 1512 1513 1514 1515 1516 1517 1517
1457 1466 1475 1470 1466 1456 1455 1454 1456 1465 1477 1487 1497 1503 1487 1484 1481 1480 1480 1482 1485 1487 1489 1491 1493 1495 1496 1497 1498 1500 1502 1504 1506 1508 1509 1511 1512 1513 1514 1514 1515 1516 1516 1516
1456 1469 1476 1481 1477 1467 1465 1461 1459 1467 1482 1486 1489 1495 1493 1490 1487 1487 1487 1488 1489 1492 1494 1495 1497 1498 1499 1501 1501 1502 1504 1506 1508 1509 1511 1512 1513 1514 1514 1515 1515 1516 1516 1516
1462 1472 1470 1469 1465 1463 1464 1463 1461 1464 1468 1480 1486 1491 1494 1492 1491 1491 1491 1492 1493 1495 1497 1498 1499 1501 1502 1503 1503 1504 1505 1507 1509 1510 1512 1513 1514 1515 1515 1515 1515 1515 1515 1515
1469 1473 1472 1473 1466 1465 1467 1464 1462 1464 1466 1474 1484 1493 1494 1494 1493 1493 1494 1495 1496 1497 1498 1500 1501 1502 1503 1504 1505 1507 1508 1509 1511 1512 1513 1514 1515 1515 1516 1516 1516 1515 1514 1513
1475 1477 1481 1483 1473 1469 1480 1476 1471 1474 1474 1475 1484 1491 1495 1496 1497 1497 1497 1497 1498 1498 1500 1501 1502 1503 1504 1506 1507 1508 1510 1511 1512 1513 1514 1515 1516 1516 1516 1516 1516 1515 1514 1512
1475 1479 1485 1485 1481 1491 1491 1480 1479 1482 1486 1484 1487 1493 1496 1498 1501 1501 1501 1500 1500 1500 1501 1502 1503 1505 1506 1508 1509 1510 1512 1513 1514 1515 1516 1517 1517 1517 1517 1516 1515 1514 1513 1511
1471 1477 1485 1490 1490 1489 1486 1483 1483 1488 1495 1494 1494 1498 1500 1500 1501 1504 1504 1503 1503 1503 1503 1504 1506 1507 1508 1510 1511 1512 1514 1515 1516 1517 1518 1518 1518 1518 1517 1516 1515 1513 1512 1510
1472 1475 1484 1489 1491 1494 1494 1486 1483 1487 1498 1497 1496 1498 1498 1499 1502 1506 1506 1505 1505 1505 1506 1507 1508 1510 1511 1513 1514 1515 1516 1517 1518 1519 1519 1519 1519 1518 1517 1516 1515 1513 1512 1510
1483 1483 1486 1490 1493 1491 1493 1486 1482 1493 1499 1498 1496 1496 1496 1497 1499 1503 1505 1507 1507 1508 1509 1510 1511 1513 1514 1516 1517 1518 1519 1519 1520 1520 1520 1520 1520 1519 1518 1517 1515 1513 1511 1509
1489 1490 1490 1491 1496 1498 1493 1489 1493 1496 1496 1495 1495 1495 1495 1497 1500 1503 1506 1507 1509 1510 1512 1513 1515 1516 1518 1519 1520 1520 1521 1522 1522 1522 1521 1521 1520 1519 1518 1517 1515 1513 1511 1508
1488 1489 1490 1493 1498 1496 1493 1493 1494 1494 1494 1494 1494 1495 1495 1498 1501 1504 1507 1509 1511 1513 1515 1517 1518 1519 1520 1521 1522 1522 1523 1523 1523 1523 1523 1522 1521 1520 1519 1517 1515 1513 1510 1507
1487 1486 1490 1494 1496 1496 1495 1494 1494 1493 1493 1493 1493 1494 1495 1498 1501 1505 1508 1511 1514 1516 1518 1520 1521 1522 1523 1523 1524 1524 1524 1525 1524 1524 1523 1523 1522 1520 1519 1517 1515 1513 1510 1507
1488 1487 1491 1494 1496 1497 1496 1495 1494 1493 1493 1492 1493 1494 1497 1499 1503 1507 1510 1514 1517 1519 1521 1523 1524 1524 1525 1526 1526 1526 1526 1526 1525 1525 1524 1523 1522 1520 1519 1517 1515 1512 1510 1507
1488 1489 1490 1492 1492 1494 1496 1496 1495 1495 1494 1494 1495 1497 1501 1503 1506 1510 1514 1517 1520 1522 1524 1525 1526 1527 1527 1528 1528 1528 1527 1527 1526 1525 1524 1523 1522 1520 1518 1516 1514 1511 1509 1507